DELTA 1 DEB

Satellite information

Favourite Embed

Satellite Type and Status

DEBRISIN ORBIT

Key statistics

Satellite DELTA 1 DEB at a glance.

Uptime

17685

Days in orbit

Revolutions

≈ 12.5

Per day

Orbit

MEO

Medium Earth Orbit

Inclination

29.2

Latest

Satellite identification and parameters

Extended collection of information and parameters for DELTA 1 DEB.

Object identification

Identified? True

Debris? True

Object name: DELTA 1 DEB

International designator: 1977-065FT

Object number (NORAD): 14565

Object ID (CCSDS): 14565

Country: UNITED STATES OF AMERICA (US)

Current information (Y/N): Y

RCS size: SMALL

Orbital parameters

Period: 115.267 minutes

Inclination: 29.2053 deg

SMA: 7845.665 km

Apoapsis: 2125.699 km

Periapsis: 809.362 km

RAAN: 57.6345 deg

Eccentricy: 0.08388947

Argument of periapsis: 111.3066 deg

Mean anomaly: 257.9053 deg

Mean motion: 12.49275146 rev/day

Mean motion (dot): -0.00001101 rev/day2

B* drag term: -0.002076736 1/REarth

Two-line elements (TLE)

Creation date: Dec. 13, 2025, 4:32 a.m.

Reference frame: TEME

Reference center: EARTH

Epoch: Dec. 12, 2025, 12:01 p.m. UTC

TLE line 0: 0 DELTA 1 DEB

TLE line 1: 1 14565U 77065FT 25346.50107610 -.00001101 00000-0 -20767-2 0 9995

TLE line 2: 2 14565 29.2053 57.6345 0838895 111.3066 257.9053 12.49275146 18532

Live tracking on map

Real-time ground track for satellite DELTA 1 DEB.

In-orbit conjunctions

A list of the most updated potential collisions computed for object DELTA 1 DEB.

Target Orbit TCA Probability of collision Miss distance Type
SL-3 R/B LEO 2025-12-03 21:15:19 0.0002100229 513.0 (m) ROCKET BODY

Associated space launch

Japanese meteorological satellite built by Hughes Space and Communications Company

DELTA 1 DEB was lifted into orbit during the mission ‘Delta 2914 | Himawari’, on board a Delta 2914 space rocket.

The launch took place on July 14, 1977, 10:39 a.m. from Space Launch Complex 17B.

For more information about the launch, click the button.

Launch to space Delta 2914 | Himawari
Delta 2914 | Himawari

Agency: N/A

Status: Launch Successful

Launch date: July 14, 1977, 10:39 a.m. UTC

Rocket: Delta 2914

Launch pad: Space Launch Complex 17B

Location: Cape Canaveral SFS, FL, USA

...

Latest news about this satellite

There are no fresh news available about this satellite. Check back as we update our databases every day.


Newsletter sign-up

Weekly statistics, charts and insights to help you stay on top of the space industry.